Time,TemperatureF,DewpointF,PressureIn,WindDirection,WindDirectionDegrees,WindSpeedMPH,WindSpeedGustMPH,Humidity,HourlyPrecipIn,Conditions,Clouds,dailyrainin,SoftwareType,DateUTC
2013-05-19 00:03:00,55.0,48.0,30.25,WSW,257,0.0,0.0,77,0.00,,,0.00,,2013-05-19 04:03:00,
2013-05-19 00:12:00,55.0,48.0,30.25,WSW,257,0.0,0.0,77,0.00,,,0.00,,2013-05-19 04:12:00,
2013-05-19 00:23:00,54.0,47.0,30.26,WSW,257,0.0,0.0,78,0.00,,,0.00,,2013-05-19 04:23:00,
2013-05-19 00:33:00,54.0,48.0,30.25,WSW,257,0.0,0.0,79,0.00,,,0.00,,2013-05-19 04:33:00,
2013-05-19 00:42:00,54.0,48.0,30.25,WSW,257,0.0,0.0,79,0.00,,,0.00,,2013-05-19 04:42:00,
2013-05-19 00:53:00,53.0,47.0,30.26,WSW,257,0.0,0.0,80,0.00,,,0.00,,2013-05-19 04:53:00,
2013-05-19 01:02:00,53.0,48.0,30.26,WSW,257,0.0,0.0,82,0.00,,,0.00,,2013-05-19 05:02:00,
2013-05-19 01:12:00,53.0,48.0,30.26,WSW,257,0.0,0.0,82,0.00,,,0.00,,2013-05-19 05:12:00,
2013-05-19 01:22:00,52.0,47.0,30.25,WSW,257,0.0,1.0,83,0.00,,,0.00,,2013-05-19 05:22:00,
2013-05-19 01:32:00,52.0,47.0,30.25,WSW,257,0.0,0.0,84,0.00,,,0.00,,2013-05-19 05:32:00,
2013-05-19 01:42:00,51.0,47.0,30.26,WSW,257,0.0,0.0,85,0.00,,,0.00,,2013-05-19 05:42:00,
2013-05-19 01:52:00,51.0,47.0,30.26,WSW,257,0.0,0.0,85,0.00,,,0.00,,2013-05-19 05:52:00,
2013-05-19 02:02:00,51.0,47.0,30.26,WSW,257,0.0,0.0,86,0.00,,,0.00,,2013-05-19 06:02:00,
2013-05-19 02:12:00,51.0,47.0,30.26,WSW,257,0.0,0.0,86,0.00,,,0.00,,2013-05-19 06:12:00,
2013-05-19 02:21:00,51.0,47.0,30.26,WSW,257,0.0,0.0,87,0.00,,,0.00,,2013-05-19 06:21:00,
2013-05-19 02:32:00,50.0,47.0,30.26,WSW,257,0.0,0.0,88,0.00,,,0.00,,2013-05-19 06:32:00,
2013-05-19 02:42:00,50.0,47.0,30.26,WSW,257,0.0,0.0,89,0.00,,,0.00,,2013-05-19 06:42:00,
2013-05-19 02:52:00,50.0,47.0,30.26,WSW,257,0.0,0.0,89,0.00,,,0.00,,2013-05-19 06:52:00,
2013-05-19 03:01:00,49.0,46.0,30.26,WSW,257,0.0,0.0,91,0.00,,,0.00,,2013-05-19 07:01:00,
2013-05-19 03:11:00,49.0,46.0,30.26,WSW,257,0.0,0.0,91,0.00,,,0.00,,2013-05-19 07:11:00,
2013-05-19 03:21:00,49.0,47.0,30.26,WSW,257,0.0,0.0,92,0.00,,,0.00,,2013-05-19 07:21:00,
2013-05-19 03:32:00,49.0,47.0,30.25,WSW,257,0.0,0.0,92,0.00,,,0.00,,2013-05-19 07:32:00,
2013-05-19 03:42:00,49.0,47.0,30.25,WSW,257,0.0,0.0,92,0.00,,,0.00,,2013-05-19 07:42:00,
2013-05-19 03:52:00,48.0,46.0,30.26,WSW,257,0.0,0.0,93,0.00,,,0.00,,2013-05-19 07:52:00,
2013-05-19 04:02:00,48.0,46.0,30.26,WSW,257,0.0,0.0,93,0.00,,,0.00,,2013-05-19 08:02:00,
2013-05-19 04:12:00,48.0,46.0,30.26,WSW,257,0.0,0.0,93,0.00,,,0.00,,2013-05-19 08:12:00,
2013-05-19 04:22:00,48.0,47.0,30.26,WSW,257,0.0,0.0,95,0.00,,,0.00,,2013-05-19 08:22:00,
2013-05-19 04:32:00,48.0,47.0,30.26,WSW,257,0.0,0.0,95,0.00,,,0.00,,2013-05-19 08:32:00,
2013-05-19 04:42:00,48.0,47.0,30.26,WSW,257,0.0,0.0,95,0.00,,,0.00,,2013-05-19 08:42:00,
2013-05-19 04:52:00,48.0,47.0,30.27,WSW,257,0.0,0.0,95,0.00,,,0.00,,2013-05-19 08:52:00,
2013-05-19 05:02:00,48.0,47.0,30.27,WSW,257,0.0,0.0,95,0.00,,,0.00,,2013-05-19 09:02:00,
2013-05-19 05:12:00,48.0,47.0,30.27,WSW,257,0.0,0.0,95,0.00,,,0.00,,2013-05-19 09:12:00,
2013-05-19 05:21:00,47.0,46.0,30.27,WSW,257,0.0,0.0,96,0.00,,,0.00,,2013-05-19 09:21:00,
2013-05-19 05:32:00,47.0,46.0,30.28,WSW,257,0.0,0.0,96,0.00,,,0.00,,2013-05-19 09:32:00,
2013-05-19 05:43:00,47.0,46.0,30.28,WSW,257,0.0,0.0,96,0.00,,,0.00,,2013-05-19 09:43:00,
2013-05-19 05:53:00,48.0,47.0,30.28,WSW,257,0.0,0.0,96,0.00,,,0.00,,2013-05-19 09:53:00,
2013-05-19 06:02:00,48.0,47.0,30.28,WSW,257,0.0,0.0,96,0.00,,,0.00,,2013-05-19 10:02:00,
2013-05-19 06:12:00,47.0,46.0,30.29,WSW,257,0.0,0.0,96,0.00,,,0.00,,2013-05-19 10:12:00,
2013-05-19 06:23:00,47.0,46.0,30.29,WSW,257,0.0,0.0,96,0.00,,,0.00,,2013-05-19 10:23:00,
2013-05-19 06:33:00,47.0,46.0,30.29,WSW,257,0.0,0.0,97,0.00,,,0.00,,2013-05-19 10:33:00,
2013-05-19 06:42:00,47.0,46.0,30.29,WSW,257,0.0,0.0,97,0.00,,,0.00,,2013-05-19 10:42:00,
2013-05-19 06:53:00,47.0,46.0,30.29,WSW,257,0.0,0.0,97,0.00,,,0.00,,2013-05-19 10:53:00,
2013-05-19 07:02:00,47.0,46.0,30.29,WSW,257,0.0,0.0,97,0.00,,,0.00,,2013-05-19 11:02:00,
2013-05-19 07:12:00,47.0,46.0,30.29,WSW,257,0.0,0.0,97,0.00,,,0.00,,2013-05-19 11:12:00,
2013-05-19 07:21:00,49.0,48.0,30.30,WSW,257,0.0,0.0,97,0.00,,,0.00,,2013-05-19 11:21:00,
2013-05-19 07:32:00,51.0,49.0,30.30,WSW,257,0.0,0.0,93,0.00,,,0.00,,2013-05-19 11:32:00,
2013-05-19 07:42:00,51.0,49.0,30.30,WSW,257,0.0,0.0,93,0.00,,,0.00,,2013-05-19 11:42:00,
2013-05-19 07:52:00,52.0,49.0,30.30,WSW,257,0.0,0.0,88,0.00,,,0.00,,2013-05-19 11:52:00,
2013-05-19 08:01:00,53.0,48.0,30.30,WSW,257,0.0,0.0,83,0.00,,,0.00,,2013-05-19 12:01:00,
2013-05-19 08:11:00,53.0,48.0,30.30,WSW,257,0.0,0.0,83,0.00,,,0.00,,2013-05-19 12:11:00,
2013-05-19 08:22:00,55.0,49.0,30.30,WSW,257,0.0,0.0,81,0.00,,,0.00,,2013-05-19 12:22:00,
2013-05-19 08:32:00,56.0,49.0,30.30,WSW,255,0.0,1.0,76,0.00,,,0.00,,2013-05-19 12:32:00,
2013-05-19 08:42:00,56.0,49.0,30.30,WSW,255,0.0,1.0,76,0.00,,,0.00,,2013-05-19 12:42:00,
2013-05-19 08:52:00,57.0,49.0,30.31,WSW,255,0.0,1.0,75,0.00,,,0.00,,2013-05-19 12:52:00,
2013-05-19 09:01:00,58.0,49.0,30.31,WSW,255,0.0,1.0,73,0.00,,,0.00,,2013-05-19 13:01:00,
2013-05-19 09:11:00,58.0,49.0,30.31,WSW,255,0.0,1.0,73,0.00,,,0.00,,2013-05-19 13:11:00,
2013-05-19 09:21:00,59.0,50.0,30.31,West,259,0.0,1.0,71,0.00,,,0.00,,2013-05-19 13:21:00,
2013-05-19 09:32:00,60.0,50.0,30.31,NW,318,0.0,1.0,70,0.00,,,0.00,,2013-05-19 13:32:00,
2013-05-19 09:42:00,60.0,50.0,30.31,NW,318,0.0,1.0,70,0.00,,,0.00,,2013-05-19 13:42:00,
2013-05-19 09:52:00,62.0,51.0,30.31,North,4,0.0,1.0,67,0.00,,,0.00,,2013-05-19 13:52:00,
2013-05-19 10:02:00,64.0,51.0,30.31,North,357,0.0,1.0,63,0.00,,,0.00,,2013-05-19 14:02:00,
2013-05-19 10:11:00,64.0,51.0,30.31,North,357,0.0,1.0,63,0.00,,,0.00,,2013-05-19 14:11:00,
2013-05-19 10:21:00,65.0,50.0,30.30,SW,233,0.0,1.0,59,0.00,,,0.00,,2013-05-19 14:21:00,
2013-05-19 10:32:00,66.0,51.0,30.29,WSW,245,1.0,3.0,59,0.00,,,0.00,,2013-05-19 14:32:00,
2013-05-19 10:42:00,66.0,51.0,30.29,WSW,245,1.0,3.0,59,0.00,,,0.00,,2013-05-19 14:42:00,
2013-05-19 10:52:00,65.0,50.0,30.29,SW,229,3.0,5.0,58,0.00,,,0.00,,2013-05-19 14:52:00,
2013-05-19 11:02:00,66.0,51.0,30.29,WNW,294,1.0,6.0,58,0.00,,,0.00,,2013-05-19 15:02:00,
2013-05-19 11:12:00,66.0,51.0,30.29,WNW,294,1.0,6.0,58,0.00,,,0.00,,2013-05-19 15:12:00,
2013-05-19 11:22:00,67.0,50.0,30.29,SW,216,2.0,5.0,55,0.00,,,0.00,,2013-05-19 15:22:00,
2013-05-19 11:33:00,69.0,51.0,30.29,WSW,244,2.0,6.0,53,0.00,,,0.00,,2013-05-19 15:33:00,
2013-05-19 11:43:00,69.0,51.0,30.29,WSW,244,2.0,6.0,53,0.00,,,0.00,,2013-05-19 15:43:00,
2013-05-19 11:53:00,67.0,51.0,30.29,SSW,205,0.0,2.0,57,0.00,,,0.00,,2013-05-19 15:53:00,
2013-05-19 12:03:00,68.0,50.0,30.29,West,267,0.0,2.0,53,0.00,,,0.00,,2013-05-19 16:03:00,
2013-05-19 12:12:00,68.0,50.0,30.29,West,267,0.0,2.0,53,0.00,,,0.00,,2013-05-19 16:12:00,
2013-05-19 12:23:00,70.0,50.0,30.28,WSW,247,1.0,6.0,50,0.00,,,0.00,,2013-05-19 16:23:00,
2013-05-19 12:32:00,69.0,52.0,30.28,North,350,0.0,3.0,55,0.00,,,0.00,,2013-05-19 16:32:00,
2013-05-19 12:42:00,69.0,52.0,30.28,North,350,0.0,3.0,55,0.00,,,0.00,,2013-05-19 16:42:00,
2013-05-19 12:52:00,69.0,50.0,30.28,NW,309,2.0,4.0,51,0.00,,,0.00,,2013-05-19 16:52:00,
2013-05-19 13:02:00,70.0,52.0,30.27,NW,319,0.0,7.0,52,0.00,,,0.00,,2013-05-19 17:02:00,
2013-05-19 13:12:00,70.0,52.0,30.27,NW,319,0.0,7.0,52,0.00,,,0.00,,2013-05-19 17:12:00,
2013-05-19 13:22:00,68.0,51.0,30.27,NNW,342,0.0,3.0,54,0.00,,,0.00,,2013-05-19 17:22:00,
2013-05-19 13:32:00,68.0,50.0,30.26,WNW,289,0.0,1.0,53,0.00,,,0.00,,2013-05-19 17:32:00,
2013-05-19 13:42:00,68.0,50.0,30.26,WNW,289,0.0,1.0,53,0.00,,,0.00,,2013-05-19 17:42:00,
2013-05-19 13:52:00,67.0,50.0,30.25,West,268,3.0,5.0,55,0.00,,,0.00,,2013-05-19 17:52:00,
2013-05-19 14:02:00,68.0,50.0,30.25,WNW,282,3.0,7.0,53,0.00,,,0.00,,2013-05-19 18:02:00,
2013-05-19 14:12:00,68.0,50.0,30.25,WNW,282,3.0,7.0,53,0.00,,,0.00,,2013-05-19 18:12:00,
2013-05-19 14:22:00,68.0,51.0,30.24,West,268,1.0,5.0,55,0.00,,,0.00,,2013-05-19 18:22:00,
2013-05-19 14:32:00,69.0,51.0,30.24,SSE,161,0.0,1.0,53,0.00,,,0.00,,2013-05-19 18:32:00,
2013-05-19 14:43:00,69.0,51.0,30.24,SSE,161,0.0,1.0,53,0.00,,,0.00,,2013-05-19 18:43:00,
2013-05-19 14:53:00,69.0,51.0,30.23,West,263,0.0,3.0,53,0.00,,,0.00,,2013-05-19 18:53:00,
2013-05-19 15:01:00,69.0,51.0,30.23,West,264,0.0,3.0,52,0.00,,,0.00,,2013-05-19 19:01:00,
2013-05-19 15:11:00,69.0,51.0,30.23,West,264,0.0,3.0,52,0.00,,,0.00,,2013-05-19 19:11:00,
2013-05-19 15:22:00,69.0,50.0,30.23,SW,229,1.0,4.0,51,0.00,,,0.00,,2013-05-19 19:22:00,
2013-05-19 15:32:00,68.0,51.0,30.23,SSW,210,0.0,4.0,54,0.00,,,0.00,,2013-05-19 19:32:00,
2013-05-19 15:42:00,68.0,51.0,30.23,SSW,210,0.0,4.0,54,0.00,,,0.00,,2013-05-19 19:42:00,
2013-05-19 15:52:00,64.0,52.0,30.23,South,172,1.0,2.0,66,0.00,,,0.00,,2013-05-19 19:52:00,
2013-05-19 16:02:00,61.0,52.0,30.23,ESE,104,0.0,2.0,72,0.00,,,0.00,,2013-05-19 20:02:00,
2013-05-19 16:11:00,61.0,52.0,30.23,ESE,104,0.0,2.0,72,0.00,,,0.00,,2013-05-19 20:11:00,
2013-05-19 16:21:00,59.0,51.0,30.24,SE,139,0.0,2.0,75,0.00,,,0.00,,2013-05-19 20:21:00,
2013-05-19 16:32:00,58.0,51.0,30.24,ESE,123,0.0,1.0,78,0.00,,,0.00,,2013-05-19 20:32:00,
2013-05-19 16:42:00,58.0,51.0,30.24,ESE,123,0.0,1.0,78,0.00,,,0.00,,2013-05-19 20:42:00,
2013-05-19 16:52:00,57.0,51.0,30.24,SE,128,0.0,1.0,81,0.00,,,0.00,,2013-05-19 20:52:00,
2013-05-19 17:02:00,57.0,52.0,30.25,East,92,0.0,0.0,82,0.00,,,0.00,,2013-05-19 21:02:00,
2013-05-19 17:11:00,57.0,52.0,30.25,East,92,0.0,0.0,82,0.00,,,0.00,,2013-05-19 21:11:00,
2013-05-19 17:22:00,56.0,51.0,30.25,East,92,0.0,0.0,84,0.00,,,0.00,,2013-05-19 21:22:00,
2013-05-19 17:32:00,57.0,52.0,30.24,East,92,0.0,0.0,84,0.00,,,0.00,,2013-05-19 21:32:00,
2013-05-19 17:43:00,57.0,52.0,30.24,East,92,0.0,0.0,84,0.00,,,0.00,,2013-05-19 21:43:00,
2013-05-19 17:53:00,57.0,53.0,30.24,East,92,0.0,0.0,85,0.00,,,0.00,,2013-05-19 21:53:00,
2013-05-19 18:03:00,56.0,52.0,30.25,East,92,0.0,0.0,86,0.00,,,0.00,,2013-05-19 22:03:00,
2013-05-19 18:12:00,56.0,52.0,30.25,East,92,0.0,0.0,86,0.00,,,0.00,,2013-05-19 22:12:00,
2013-05-19 18:23:00,56.0,52.0,30.25,East,92,0.0,0.0,87,0.00,,,0.00,,2013-05-19 22:23:00,
2013-05-19 18:33:00,57.0,54.0,30.25,West,264,1.0,2.0,89,0.00,,,0.00,,2013-05-19 22:33:00,
2013-05-19 18:42:00,57.0,54.0,30.25,West,264,1.0,2.0,89,0.00,,,0.00,,2013-05-19 22:42:00,
2013-05-19 18:53:00,57.0,54.0,30.25,WSW,244,0.0,3.0,89,0.00,,,0.00,,2013-05-19 22:53:00,
2013-05-19 19:03:00,57.0,54.0,30.25,West,270,0.0,2.0,90,0.00,,,0.00,,2013-05-19 23:03:00,
2013-05-19 19:12:00,57.0,54.0,30.25,West,270,0.0,2.0,90,0.00,,,0.00,,2013-05-19 23:12:00,
2013-05-19 19:22:00,56.0,54.0,30.25,WNW,285,0.0,5.0,92,0.00,,,0.00,,2013-05-19 23:22:00,
2013-05-19 19:32:00,56.0,54.0,30.24,WNW,285,0.0,0.0,93,0.00,,,0.00,,2013-05-19 23:32:00,
2013-05-19 19:42:00,56.0,54.0,30.24,WNW,285,0.0,0.0,94,0.01,,,0.01,,2013-05-19 23:42:00,
2013-05-19 19:52:00,56.0,54.0,30.24,WNW,285,0.0,0.0,94,0.01,,,0.01,,2013-05-19 23:52:00,
2013-05-19 20:02:00,55.0,54.0,30.24,WNW,285,0.0,0.0,95,0.01,,,0.01,,2013-05-20 00:02:00,
2013-05-19 20:11:00,55.0,54.0,30.24,WNW,285,0.0,0.0,95,0.01,,,0.01,,2013-05-20 00:11:00,
2013-05-19 20:22:00,55.0,54.0,30.24,WSW,241,0.0,4.0,96,0.01,,,0.01,,2013-05-20 00:22:00,
2013-05-19 20:32:00,55.0,54.0,30.24,West,271,0.0,5.0,97,0.02,,,0.02,,2013-05-20 00:32:00,
2013-05-19 20:42:00,55.0,54.0,30.24,West,271,0.0,5.0,97,0.02,,,0.02,,2013-05-20 00:42:00,
2013-05-19 20:52:00,55.0,54.0,30.23,West,271,0.0,0.0,98,0.01,,,0.02,,2013-05-20 00:52:00,
2013-05-19 21:01:00,55.0,55.0,30.24,West,271,0.0,0.0,99,0.01,,,0.02,,2013-05-20 01:01:00,
2013-05-19 21:11:00,55.0,55.0,30.24,West,271,0.0,0.0,99,0.01,,,0.02,,2013-05-20 01:11:00,
2013-05-19 21:21:00,55.0,55.0,30.23,West,271,0.0,1.0,100,0.02,,,0.03,,2013-05-20 01:21:00,
2013-05-19 21:32:00,55.0,55.0,30.23,West,271,0.0,1.0,100,0.02,,,0.04,,2013-05-20 01:32:00,
2013-05-19 21:42:00,55.0,55.0,30.23,West,271,0.0,1.0,100,0.02,,,0.04,,2013-05-20 01:42:00,
2013-05-19 21:52:00,55.0,55.0,30.23,West,271,0.0,0.0,100,0.02,,,0.04,,2013-05-20 01:52:00,
2013-05-19 22:02:00,55.0,55.0,30.23,West,271,0.0,2.0,100,0.02,,,0.04,,2013-05-20 02:02:00,
2013-05-19 22:12:00,55.0,55.0,30.23,West,271,0.0,2.0,100,0.02,,,0.04,,2013-05-20 02:12:00,
2013-05-19 22:21:00,55.0,55.0,30.22,NNW,340,0.0,2.0,100,0.02,,,0.05,,2013-05-20 02:21:00,
2013-05-19 22:32:00,55.0,55.0,30.22,WNW,297,0.0,2.0,100,0.01,,,0.05,,2013-05-20 02:32:00,
2013-05-19 22:42:00,55.0,55.0,30.22,WNW,297,0.0,2.0,100,0.01,,,0.05,,2013-05-20 02:42:00,
2013-05-19 22:52:00,55.0,55.0,30.22,SSW,205,0.0,1.0,100,0.01,,,0.05,,2013-05-20 02:52:00,
2013-05-19 23:02:00,55.0,55.0,30.21,West,275,0.0,4.0,100,0.01,,,0.05,,2013-05-20 03:02:00,
2013-05-19 23:11:00,55.0,55.0,30.20,NE,53,0.0,1.0,100,0.00,,,0.05,,2013-05-20 03:11:00,
2013-05-19 23:21:00,55.0,55.0,30.20,NE,53,0.0,1.0,100,0.00,,,0.05,,2013-05-20 03:21:00,
2013-05-19 23:33:00,55.0,55.0,30.20,WNW,298,0.0,2.0,100,0.01,,,0.06,,2013-05-20 03:33:00,
2013-05-19 23:43:00,55.0,55.0,30.20,South,181,0.0,1.0,100,0.01,,,0.06,,2013-05-20 03:43:00,
2013-05-19 23:52:00,55.0,55.0,30.20,South,181,0.0,1.0,100,0.01,,,0.06,,2013-05-20 03:52:00,